Meteo Giornale » Osservazioni meteo Svizzera » Meiringen

ore: 23:20 - Osservazioni Meteo Meiringen
Lat. 46° 45' N Lon. 8° 7' E Alt. 577 metri s.l.m.

sereno

17 °C

Sereno

Temp. 24 Ore

11 °C

24 °C

Nord

3.7 Km/h

Dew point 13 °C

Umidità 77 %

Visibilità  10 Km

Il sole sorge alle ore 06:48

Il sole tramonta alle ore 20:05

Data e Ora Cielo e Fenomeni T °C DP °C Um. % Pres. hPa Vis. km Vento km/h
Ieri h: 23:20 sereno Sereno 17 13 77 1023 10 N 3.7
Ieri h: 22:50 sereno Sereno 17 13 77 1023 10 E 9.3
Ieri h: 22:20 sereno Sereno 16 13 82 1023 10 E 7.4
Ieri h: 21:50 sereno Sereno 18 13 72 1023 10 E 14.8
Ieri h: 20:20 sereno Sereno 20 13 64 1022 10 N 3.7
Ieri h: 18:50 sereno Sereno 22 13 56 1022 10 N 1.8
Ieri h: 18:20 poco_nuvoloso Poco Nuvoloso 22 15 64 1022 10 N 5.5
Ieri h: 17:50 sereno Sereno 23 14 56 1022 10 N 3.7
Ieri h: 17:20 sereno Sereno 24 12 47 1022 10 N 3.7
Ieri h: 16:50 poco_nuvoloso Poco Nuvoloso 24 12 47 1022 10 SO 7.4
Ieri h: 16:20 poco_nuvoloso Poco Nuvoloso 24 12 47 1022 10 O/SO 9.3
Ieri h: 15:50 nuvoloso Nuvoloso 24 12 47 1022 10 SO 11.1
Ieri h: 15:20 poco_nuvoloso Poco Nuvoloso 23 12 49 1022 10 O/SO 9.3
Ieri h: 14:50 poco_nuvoloso Poco Nuvoloso 23 12 49 1022 10 O/SO 11.1
Ieri h: 14:20 poco_nuvoloso Poco Nuvoloso 23 11 46 1022 10 O/SO 13
Ieri h: 13:50 poco_nuvoloso Poco Nuvoloso 22 11 49 1023 10 O/SO 13
Ieri h: 13:20 poco_nuvoloso Poco Nuvoloso 22 11 49 1023 10 O 11.1
Ieri h: 12:50 sereno Sereno 21 11 52 1023 10 O/SO 9.3
Ieri h: 12:20 sereno Sereno 20 12 59 1023 10 O/SO 9.3
Ieri h: 11:50 poco_nuvoloso Poco Nuvoloso 20 11 56 1024 10 O/SO 9.3
Ieri h: 11:20 sereno Sereno 19 13 68 1024 10 O/SO 11.1
Ieri h: 10:50 poco_nuvoloso Poco Nuvoloso 19 12 63 1024 10 O 7.4
Ieri h: 10:20 poco_nuvoloso Poco Nuvoloso 18 11 63 1024 10 N 3.7
Ieri h: 09:50 poco_nuvoloso Poco Nuvoloso 18 11 63 1023 10 N 0
Ieri h: 09:20 poco_nuvoloso Poco Nuvoloso 16 12 77 1024 10 N 1.8
Ieri h: 08:50 sereno Sereno 15 12 82 1024 10 N 0
Ieri h: 08:20 sereno Sereno 13 12 93 1024 10 N 0
Ieri h: 07:50 sereno Sereno 11 11 100 1024 10 N 0
Ieri h: 07:20 sereno Sereno 11 10 93 1024 10 N 0
Ieri h: 06:50 sereno Sereno 11 10 93 1024 10 N 0
Ieri h: 06:20 sereno Sereno 12 11 93 1024 10 N 0
Ieri h: 05:50 sereno Sereno 12 11 93 1024 10 N 0
Ieri h: 05:20 sereno Sereno 12 11 93 1023 10 N 5.5
Ieri h: 04:50 poco_nuvoloso Poco Nuvoloso 13 12 93 1023 10 N 0
Ieri h: 04:20 nuvoloso Nuvoloso 13 12 93 1023 10 N 0
Ieri h: 03:50 molto_nuvoloso Molto Nuvoloso 13 12 93 1023 10 N 0
Ieri h: 03:20 poco_nuvoloso Poco Nuvoloso 14 12 87 1023 10 N 0
Ieri h: 02:50 poco_nuvoloso Poco Nuvoloso 14 12 87 1023 10 N 0
Ieri h: 02:20 molto_nuvoloso Molto Nuvoloso 14 13 93 1023 10 N 1.8
Ieri h: 01:50 molto_nuvoloso Molto Nuvoloso 15 13 87 1023 10 N 0
Ieri h: 01:20 molto_nuvoloso Molto Nuvoloso 16 13 82 1023 10 N 0
Ieri h: 00:50 molto_nuvoloso Molto Nuvoloso 15 13 87 1023 10 N 0